[[{"header":{"parameterUnit":"m.s-1","parameterCategory":1,"la1":30.2991,"la2":30.254,"lo1":-89.0895,"lo2":-89.0444,"dy":0.0017,"dx":0.0017,"nx":28,"ny":28,"refTime":"2024-04-10T09:00:00:Z","depth":0,"parameterNumber":2,"parameterNumberName":"U-component_of_WINDS"},"data":[0,0,0,0,0,0,0,0,0,0,0,0,0,0,0,0,0,0,0,0,0,0,0,0,0,0,0,0,0,0,0,0,0,0,0,0,0,0,0,0,0,0,0,0,0,0,0,0,0,0,0,0,0,0,0,0,0,0,3.1079,3.1081,0,3.1189,3.119,3.1191,3.1153,3.1151,3.1149,3.1146,3.126,3.1265,3.127,0,0,0,0,0,0,0,0,0,0,0,0,0,3.0839,3.0844,3.1079,3.1081,3.1082,3.1189,3.119,3.1192,3.1154,3.1151,3.1148,3.1145,3.1258,3.1264,3.127,0,0,0,0,0,0,0,0,0,0,0,0,0,3.0946,3.0845,3.1079,3.1076,3.1077,3.1188,3.119,3.1192,3.1154,3.1151,3.1147,3.1144,3.1256,3.1264,3.1271,3.1393,0,0,3.1295,3.1299,0,0,0,0,0,0,0,0,3.094,3.0954,3.1075,3.1076,3.1078,3.1154,3.1147,3.1259,3.1155,3.1125,3.1146,3.1142,3.1227,3.1237,3.1266,3.1398,3.1403,3.1296,3.1301,3.1304,3.1307,0,0,0,0,0,0,0,3.0932,3.095,3.1123,3.1077,3.1078,3.107,3.1081,3.1168,3.1195,3.1127,3.1125,3.1138,3.1227,3.1258,3.1268,3.1405,3.1296,3.1303,3.1308,3.1311,3.1642,3.1646,0,0,0,0,0,0,3.0924,3.0944,3.1119,3.1126,3.0998,3.1077,3.1089,3.1133,3.1194,3.12,3.1141,3.1136,3.1247,3.1259,3.1272,3.1419,3.1304,3.1312,3.1316,3.1638,3.1643,3.1647,0,0,0,0,0,0,3.0919,3.094,3.1115,3.1034,3.1056,3.1085,3.1134,3.1137,3.1168,3.1205,3.1209,3.1168,3.1244,3.1261,3.1363,3.1422,3.1315,3.1322,3.1633,3.164,3.1645,3.1712,0,0,0,0,0,0,3.0912,3.0939,3.0985,3.1035,3.106,3.1204,3.1138,3.1142,3.1182,3.1176,3.1231,3.1237,3.1243,3.1351,3.1371,3.1431,3.1329,3.1628,3.1636,3.1643,3.1705,3.172,3.1732,0,0,0,0,0,3.0904,3.0999,3.0987,3.1009,3.1118,3.1207,3.1221,3.1226,3.1186,3.1233,3.1257,3.1235,3.1412,3.1362,3.1384,3.1447,3.1624,3.1634,3.1643,3.1698,3.1717,3.1732,0,0,0,0,0,0,3.0955,3.1006,3.0993,3.1108,3.1153,3.12,3.126,3.1245,3.1303,3.1295,3.1299,3.1312,3.1417,3.1442,3.1385,3.1568,3.1513,3.1526,3.1548,3.1565,3.1579,3.1571,3.1335,0,0,0,0,0,3.098,3.1047,3.1088,3.1185,3.1209,3.123,3.1269,3.1269,3.1316,3.1336,3.1367,3.1414,3.148,3.1524,3.1587,3.1708,3.172,3.1762,3.1776,3.1787,3.1799,3.1866,3.1885,3.1677,3.1677,3.1677,0,0,3.1031,3.1067,3.111,3.1196,3.1232,3.1302,3.1247,3.1323,3.1375,3.1347,3.1445,3.147,3.1523,3.1635,3.1686,3.1659,3.1859,3.1799,3.1808,3.1814,3.1877,3.1897,3.1914,3.1683,3.1682,3.1681,0,0,3.1161,3.1195,3.128,3.1316,3.137,3.1384,3.1404,3.1454,3.1469,3.1568,3.1548,3.161,3.1725,3.1763,3.1798,3.1943,3.1925,3.1964,3.2036,3.21,3.2117,3.2131,3.2183,3.2202,3.1975,3.1976,3.1976,0,3.1218,3.1323,3.1325,3.1403,3.1442,3.142,3.1506,3.1541,3.1614,3.1641,3.161,3.1753,3.1787,3.1908,3.1944,3.1972,3.1996,3.1957,3.2114,3.2129,3.2142,3.2192,3.2211,3.198,3.1979,3.1979,3.1978,0,3.1391,3.1463,3.1525,3.1595,3.1641,3.1723,3.1739,3.1785,3.1781,3.1798,3.1899,3.1939,3.201,3.2039,3.2035,3.216,3.2141,3.2112,3.2057,3.2166,3.2213,3.2232,3.1986,3.1984,3.1983,3.1982,0,0,3.1556,3.1626,3.1649,3.168,3.1738,3.1795,3.1876,3.1945,3.1985,3.2035,3.2104,3.2201,3.2174,3.2214,3.2215,3.2271,3.2384,3.2236,3.2237,3.2262,3.2523,3.2545,3.2567,3.2372,3.2376,3.2379,3.2519,0,3.169,3.1832,3.1837,3.1967,3.2034,3.2014,3.2084,3.2128,3.2146,3.2207,3.2227,3.2296,3.2256,3.228,3.2335,3.2359,3.2436,3.2348,3.2436,3.2439,3.2424,3.2591,3.2614,3.2744,3.2537,3.254,3.2542,0,3.1866,3.1922,3.2059,3.2107,3.2135,3.2199,3.2263,3.232,3.2369,3.2379,3.2423,3.2416,3.2499,3.2441,3.2556,3.2496,3.2532,3.255,3.2555,3.2563,3.2498,3.2604,3.2786,3.2806,3.2571,3.2569,3.2567,0,3.1973,3.2083,3.2178,3.2206,3.2265,3.231,3.2337,3.2382,3.2423,3.2479,3.2506,3.2571,3.2607,3.2658,3.2669,3.2625,3.2784,3.2727,3.2795,3.2795,3.2829,3.2827,3.302,3.2853,3.2852,3.2852,3.2852,0,3.2123,3.2208,3.2227,3.2286,3.238,3.2385,3.2478,3.2502,3.2542,3.2606,3.2592,3.2652,3.2663,3.2725,3.2734,3.2829,3.2845,3.2855,3.2857,3.2857,3.2855,3.2881,3.2872,3.2857,3.2856,3.2855,3.2854,0,3.2259,3.2275,3.2379,3.2426,3.244,3.2507,3.2547,3.2604,3.2621,3.2701,3.2721,3.2747,3.282,3.2836,3.2923,3.2929,3.3041,3.3033,3.3024,3.3023,3.3091,3.3084,3.3306,3.3336,3.3149,3.3151,3.3152,0,3.2354,3.2418,3.2472,3.2513,3.2542,3.2609,3.2651,3.2658,3.2703,3.2764,3.2813,3.2884,3.2942,3.3059,3.3087,3.3153,3.3147,3.322,3.3157,3.3155,3.3149,3.3145,3.3151,3.3233,3.3235,3.3236,3.3238,0,3.2521,3.2525,3.2586,3.265,3.27,3.2751,3.2799,3.2834,3.2848,3.2899,3.2973,3.3017,3.3105,3.3177,3.3243,3.3271,3.3257,3.3257,3.3277,3.3277,3.3269,3.3275,3.3057,3.3252,3.3251,3.325,3.3249,3.3248,3.2639,3.2695,3.2742,3.281,3.2847,3.2892,3.2948,3.2972,3.3033,3.3105,3.3106,3.3187,3.3235,3.3322,3.3355,3.3418,3.3396,3.3424,3.3431,3.3438,3.3444,3.3259,3.3431,3.343,3.343,3.3429,3.3429,0,3.2805,3.2834,3.2896,3.2964,3.3018,3.2999,3.3052,3.3098,3.317,3.3215,3.3272,3.3357,3.3426,3.3459,3.3527,3.3572,3.3567,3.359,3.3586,3.3593,3.346,3.3437,3.3592,3.3592,3.3592,3.3592,3.3592,3.3592,3.2898,3.2992,3.3002,3.3115,3.3143,3.3222,3.3254,3.3296,3.3332,3.3428,3.3485,3.3505,3.3546,3.3617,3.368,3.3688,3.3714,3.3739,3.3744,3.3619,3.3603,3.3587,3.3565,3.3745,3.3745,3.3872,3.3873,3.3874]},{"header":{"parameterUnit":"m.s-1","parameterCategory":1,"la1":30.2991,"la2":30.254,"lo1":-89.0895,"lo2":-89.0444,"dy":0.0017,"dx":0.0017,"nx":28,"ny":28,"refTime":"2024-04-10T09:00:00:Z","depth":0,"parameterNumber":3,"parameterNumberName":"V-component_of_WINDS"},"data":[0,0,0,0,0,0,0,0,0,0,0,0,0,0,0,0,0,0,0,0,0,0,0,0,0,0,0,0,0,0,0,0,0,0,0,0,0,0,0,0,0,0,0,0,0,0,0,0,0,0,0,0,0,0,0,0,0,0,-0.2773,-0.2774,0,-0.2856,-0.2857,-0.2858,-0.2883,-0.2882,-0.2882,-0.2881,-0.2969,-0.2972,-0.2974,0,0,0,0,0,0,0,0,0,0,0,0,0,-0.2638,-0.2641,-0.2773,-0.2774,-0.2775,-0.2856,-0.2857,-0.2858,-0.2883,-0.2882,-0.2882,-0.2881,-0.2968,-0.2971,-0.2975,0,0,0,0,0,0,0,0,0,0,0,0,0,-0.2707,-0.2641,-0.2773,-0.2797,-0.28,-0.2856,-0.2857,-0.2859,-0.2883,-0.2882,-0.2882,-0.2881,-0.2967,-0.2971,-0.2975,-0.3013,0,0,-0.2988,-0.2989,0,0,0,0,0,0,0,0,-0.2703,-0.2712,-0.2792,-0.2795,-0.2799,-0.2858,-0.2842,-0.2911,-0.2883,-0.2851,-0.2881,-0.2881,-0.2933,-0.294,-0.2957,-0.3018,-0.3021,-0.2988,-0.299,-0.2992,-0.2993,0,0,0,0,0,0,0,-0.2698,-0.2708,-0.2806,-0.2793,-0.2797,-0.2805,-0.2814,-0.2855,-0.2895,-0.2854,-0.2856,-0.2866,-0.2934,-0.2953,-0.2959,-0.3023,-0.2988,-0.2991,-0.2994,-0.2996,-0.3121,-0.3122,0,0,0,0,0,0,-0.2689,-0.2704,-0.2803,-0.2808,-0.2748,-0.2808,-0.2818,-0.284,-0.2894,-0.2902,-0.2866,-0.2866,-0.2946,-0.2954,-0.2962,-0.3012,-0.2992,-0.2996,-0.2998,-0.312,-0.3121,-0.3122,0,0,0,0,0,0,-0.2686,-0.2697,-0.28,-0.2757,-0.277,-0.2811,-0.2835,-0.2842,-0.286,-0.2903,-0.2911,-0.2877,-0.2946,-0.2956,-0.3001,-0.3015,-0.2998,-0.3002,-0.3119,-0.3121,-0.3122,-0.3111,0,0,0,0,0,0,-0.2682,-0.2696,-0.271,-0.2757,-0.2773,-0.2836,-0.2836,-0.2844,-0.2867,-0.2868,-0.2916,-0.2923,-0.2946,-0.2995,-0.3005,-0.3021,-0.3005,-0.3118,-0.312,-0.3121,-0.311,-0.3112,-0.3113,0,0,0,0,0,-0.2677,-0.2704,-0.2711,-0.2723,-0.2791,-0.2837,-0.2846,-0.2871,-0.2868,-0.2883,-0.2911,-0.2922,-0.3012,-0.2999,-0.3011,-0.3028,-0.3117,-0.3119,-0.3121,-0.311,-0.3111,-0.3113,0,0,0,0,0,0,-0.2659,-0.2711,-0.2719,-0.2762,-0.2794,-0.2841,-0.2861,-0.2872,-0.2907,-0.2907,-0.2938,-0.2948,-0.2991,-0.3014,-0.2998,-0.3069,-0.3065,-0.307,-0.3052,-0.3054,-0.3056,-0.3049,-0.3008,0,0,0,0,0,-0.2659,-0.2691,-0.2735,-0.2769,-0.2785,-0.282,-0.2841,-0.2858,-0.2893,-0.2907,-0.2939,-0.2974,-0.301,-0.3034,-0.3069,-0.3114,-0.3125,-0.3132,-0.3133,-0.3134,-0.3138,-0.3164,-0.3168,-0.3129,-0.3129,-0.3129,0,0,-0.2662,-0.2694,-0.2712,-0.2766,-0.2794,-0.2827,-0.2832,-0.2866,-0.2892,-0.2913,-0.2957,-0.2981,-0.3022,-0.3067,-0.3089,-0.3088,-0.3151,-0.3136,-0.3137,-0.314,-0.3167,-0.317,-0.3174,-0.313,-0.313,-0.313,0,0,-0.2683,-0.271,-0.2741,-0.2769,-0.2811,-0.2834,-0.2841,-0.2886,-0.2903,-0.2948,-0.2965,-0.2996,-0.3058,-0.3087,-0.311,-0.3144,-0.3155,-0.3155,-0.3162,-0.3188,-0.3191,-0.3194,-0.3207,-0.3211,-0.3158,-0.3158,-0.3158,0,-0.268,-0.273,-0.2756,-0.2791,-0.2815,-0.2835,-0.2868,-0.2894,-0.2945,-0.2962,-0.296,-0.3039,-0.3068,-0.3121,-0.3129,-0.3147,-0.3157,-0.3149,-0.3188,-0.3191,-0.3194,-0.3207,-0.3212,-0.3158,-0.3158,-0.3158,-0.3158,0,-0.2726,-0.2761,-0.2782,-0.283,-0.2857,-0.289,-0.2922,-0.2946,-0.2961,-0.2985,-0.3031,-0.3066,-0.311,-0.3124,-0.3139,-0.318,-0.3178,-0.3182,-0.3179,-0.3197,-0.321,-0.3215,-0.3157,-0.3157,-0.3157,-0.3157,0,0,-0.2737,-0.2801,-0.2808,-0.2831,-0.2879,-0.2907,-0.2942,-0.2985,-0.3005,-0.304,-0.3071,-0.3124,-0.3128,-0.3154,-0.3173,-0.3195,-0.3221,-0.3197,-0.3198,-0.3201,-0.327,-0.3267,-0.3272,-0.3229,-0.323,-0.3231,-0.3267,0,-0.2765,-0.2828,-0.2853,-0.2904,-0.2937,-0.2958,-0.2989,-0.3022,-0.3046,-0.3079,-0.3105,-0.3142,-0.3144,-0.316,-0.3184,-0.3213,-0.3236,-0.3211,-0.326,-0.3261,-0.3249,-0.3279,-0.3275,-0.3307,-0.3272,-0.3273,-0.3273,0,-0.2806,-0.2841,-0.2895,-0.294,-0.2955,-0.2982,-0.3024,-0.3055,-0.3094,-0.311,-0.3139,-0.3157,-0.3196,-0.3191,-0.3246,-0.3229,-0.325,-0.3268,-0.327,-0.3276,-0.3268,-0.3286,-0.3318,-0.3323,-0.3281,-0.328,-0.328,0,-0.2809,-0.287,-0.2911,-0.293,-0.2984,-0.3003,-0.3026,-0.3064,-0.3089,-0.3126,-0.3143,-0.3184,-0.3207,-0.3239,-0.3268,-0.3261,-0.3321,-0.3317,-0.3337,-0.3336,-0.3349,-0.3347,-0.3385,-0.3361,-0.3361,-0.3361,-0.3361,0,-0.2838,-0.2871,-0.2914,-0.2939,-0.2977,-0.3006,-0.3043,-0.3068,-0.3103,-0.3134,-0.3155,-0.3184,-0.322,-0.3255,-0.3278,-0.3321,-0.3331,-0.3346,-0.3352,-0.3344,-0.3342,-0.3359,-0.3358,-0.3363,-0.3362,-0.3362,-0.3362,0,-0.2848,-0.2878,-0.2925,-0.2972,-0.2984,-0.301,-0.3051,-0.3077,-0.3102,-0.3142,-0.3153,-0.3192,-0.3234,-0.3266,-0.3321,-0.3336,-0.3383,-0.3388,-0.3369,-0.3372,-0.339,-0.3388,-0.344,-0.3449,-0.3418,-0.3418,-0.3419,0,-0.2865,-0.2891,-0.294,-0.2963,-0.2986,-0.3021,-0.3047,-0.3077,-0.3103,-0.315,-0.3171,-0.3214,-0.325,-0.3316,-0.335,-0.3393,-0.34,-0.3416,-0.3407,-0.3399,-0.3402,-0.34,-0.3404,-0.3417,-0.3417,-0.3417,-0.3417,0,-0.2891,-0.2905,-0.294,-0.2981,-0.301,-0.3044,-0.3078,-0.3096,-0.3133,-0.3161,-0.3203,-0.3231,-0.3287,-0.333,-0.3376,-0.3402,-0.3416,-0.342,-0.3427,-0.342,-0.3408,-0.3416,-0.3373,-0.3418,-0.3418,-0.3418,-0.3418,-0.3418,-0.2906,-0.293,-0.297,-0.3008,-0.3037,-0.3069,-0.3096,-0.3125,-0.3161,-0.3208,-0.3224,-0.3268,-0.3309,-0.3372,-0.3398,-0.3434,-0.3435,-0.3444,-0.3447,-0.3449,-0.3449,-0.3401,-0.3443,-0.3443,-0.3443,-0.3443,-0.3443,0,-0.2934,-0.2961,-0.2996,-0.3043,-0.3074,-0.3085,-0.3123,-0.3149,-0.3188,-0.3224,-0.3259,-0.3309,-0.3351,-0.3389,-0.3434,-0.3456,-0.3464,-0.3466,-0.3465,-0.3471,-0.3445,-0.3435,-0.3459,-0.3459,-0.3459,-0.3459,-0.3459,-0.3459,-0.2953,-0.2995,-0.3014,-0.3071,-0.3098,-0.3141,-0.3162,-0.3192,-0.3221,-0.3276,-0.3311,-0.3335,-0.3373,-0.342,-0.346,-0.3471,-0.3487,-0.3488,-0.35,-0.3475,-0.3473,-0.3471,-0.3462,-0.3491,-0.3491,-0.3523,-0.3524,-0.3524]}]]